Snowfall_Accumulation
0.0 0.0 0.0 0.0 0.0 0.0 0.0 0.0 0.0 0.0 0.0 0.0 0.0 0.0 0.0 0.0 0.0 0.0 0.0 0.0 0.0 0.0 0.0 0.0 0.0 0.0 0.0 0.0 0.0 0.0 0.0 0.0 0.0 0.0 0.0 0.0 0.0 0.0 0.0 0.0 0.0 0.0 0.0
0.0 0.0 0.0 0.0 0.0 0.0 0.0 0.0 0.0 0.0 0.0 0.0 0.0 0.0 0.0 0.0 0.0 0.0 0.0 0.0 0.0 0.0 0.0 0.0 0.0 0.0 0.0 0.0 0.0 0.0 0.0 0.0 0.0 0.0 0.0 0.0 0.0 0.0 0.0 0.0 0.0 0.0 0.0
0.0 0.0 0.0 0.0 0.0 0.0 0.0 0.0 0.0 0.0 0.0 0.0 0.0 0.0 0.0 0.0 0.0 0.0 0.0 0.0 0.0 0.0 0.0 0.0 0.0 0.0 0.0 0.0 0.0 0.0 0.0 0.0 0.0 0.0 0.0 0.0 0.0 0.0 0.0 0.0 0.0 0.0 0.0
0.0 0.0 0.0 0.0 0.0 0.0 0.0 0.0 0.0 0.0 0.0 0.0 0.0 0.0 0.0 0.0 0.0 0.0 0.0 0.0 0.0 0.0 0.0 0.0 0.0 0.0 0.0 0.0 0.0 0.0 0.0 0.0 0.0 0.0 0.0 0.0 0.0 0.0 0.0 0.0 0.0 0.0 0.0
0.0 0.0 0.0 0.0 0.0 0.0 0.0 0.0 0.0 0.0 0.0 0.0 0.0 0.0 0.0 0.0 0.0 0.0 0.0 0.0 0.0 0.0 0.0 0.0 0.0 0.0 0.0 0.0 0.0 0.0 0.0 0.0 0.0 0.0 0.0 0.0 0.0 0.0 0.0 0.0 0.0 0.0 0.0
0.0 0.0 0.0 0.0 0.0 0.0 0.0 0.0 0.0 0.0 0.0 0.0 0.0 0.0 0.0 0.0 0.0 0.0 0.0 0.0 0.0 0.0 0.0 0.0 0.0 0.0 0.0 0.0 0.0 0.0 0.0 0.0 0.0 0.0 0.0 0.0 0.0 0.0 0.0 0.0 0.0 0.0 0.0
0.0 0.0 0.0 0.0 0.0 0.0 0.0 0.0 0.0 0.0 0.0 0.0 0.0 0.0 0.0 0.0 0.0 0.0 0.0 0.0 0.0 0.0 0.0 0.0 0.0 0.0 0.0 0.0 0.0 0.0 0.0 0.0 0.0 0.0 0.0 0.0 0.0 0.0 0.0 0.0 0.0 0.0 0.0
0.0 0.0 0.0 0.0 0.0 0.0 0.0 0.0 0.0 0.0 0.0 0.0 0.0 0.0 0.0 0.0 0.0 0.0 0.0 0.0 0.0 0.0 0.0 0.0 0.0 0.0 0.0 0.0 0.0 0.0 0.0 0.0 0.0 0.0 0.0 0.0 0.0 0.0 0.0 0.0 0.0 0.0 0.0
0.0 0.0 0.0 0.0 0.0 0.0 0.0 0.0 0.0 0.0 0.0 0.0 0.0 0.0 0.0 0.0 0.0 0.0 0.0 0.0 0.0 0.0 0.0 0.0 0.0 0.0 0.0 0.0 0.0 0.0 0.0 0.0 0.0 0.0 0.0 0.0 0.0 0.0 0.0 0.0 0.0 0.1 0.0
0.0 0.0 0.0 0.0 0.0 0.0 0.0 0.0 0.0 0.0 0.0 0.0 0.0 0.0 0.0 0.0 0.0 0.0 0.0 0.0 0.0 0.0 0.0 0.0 0.0 0.0 0.0 0.0 0.0 0.0 0.0 0.0 0.0 0.0 0.0 0.0 0.0 0.0 0.0 0.0 0.0 0.0 0.0
0.0 0.0 0.0 0.0 0.0 0.0 0.0 0.0 0.0 0.0 0.0 0.0 0.0 0.0 0.0 0.0 0.0 0.0 0.0 0.0 0.0 0.0 0.0 0.0 0.0 0.0 0.0 0.0 0.0 0.0 0.0 0.0 0.0 0.0 0.0 0.0 0.0 0.0 0.0 0.0 0.0 0.0 0.0
0.0 0.0 0.0 0.0 0.0 0.0 0.0 0.0 0.0 0.0 0.0 0.0 0.0 0.0 0.0 0.0 0.0 0.0 0.0 0.0 0.0 0.0 0.0 0.0 0.0 0.0 0.0 0.0 0.0 0.0 0.0 0.0 0.0 0.0 0.0 0.0 0.0 0.0 0.0 0.0 0.0 0.0 0.0
0.0 0.0 0.0 0.0 0.0 0.0 0.0 0.0 0.0 0.0 0.0 0.0 0.0 0.0 0.0 0.0 0.0 0.0 0.0 0.0 0.0 0.0 0.0 0.0 0.0 0.0 0.0 0.0 0.0 0.0 0.0 0.0 0.0 0.0 0.0 0.0 0.0 0.0 0.0 0.0 0.0 0.0 0.0
0.0 0.0 0.0 0.0 0.0 0.0 0.0 0.0 0.0 0.0 0.0 0.0 0.0 0.0 0.0 0.0 0.0 0.0 0.0 0.0 0.0 0.0 0.0 0.0 0.0 0.0 0.0 0.0 0.0 0.1 0.2 0.1 0.0 0.0 0.0 0.0 0.1 0.2 0.1 0.0 0.0 0.0 0.0
0.0 0.0 0.0 0.0 0.0 0.0 0.0 0.0 0.0 0.0 0.0 0.0 0.0 0.0 0.0 0.0 0.0 0.0 0.0 0.0 0.0 0.0 0.1 0.2 0.7 0.8 1.4 0.8 1.1 0.6 0.4 0.2 0.0 0.0 0.0 0.1 nan nan nan 0.4 0.2 0.1 0.1
0.0 0.0 0.0 0.0 0.0 0.0 0.0 0.0 0.0 0.0 0.0 0.0 0.2 0.4 0.1 0.1 0.2 0.1 0.1 0.1 0.4 0.7 0.8 1.3 1.6 2.3 1.2 nan nan 0.6 0.4 0.2 0.1 0.2 0.1 0.1 0.1 0.1 nan nan nan nan 1.6
0.0 0.0 0.0 0.0 0.0 0.0 0.0 0.0 0.0 0.0 0.1 0.1 0.2 0.4 0.6 0.5 1.3 0.4 0.5 0.9 0.9 0.7 1.5 3.3 1.8 2.7 1.7 nan nan nan 0.8 0.8 1.5 1.1 0.6 0.4 0.8 nan 0.3 nan nan nan nan
0.0 0.0 0.0 0.0 0.0 0.0 0.0 0.0 0.0 0.1 0.1 0.4 0.6 0.3 0.6 1.9 0.6 2.2 3.4 3.3 3.0 5.2 5.8 2.7 3.9 1.8 2.4 nan nan nan 3.9 5.1 4.8 5.2 5.2 3.6 3.0 3.6 2.4 2.4 3.1 4.4 3.9
0.3 0.1 0.1 0.1 0.1 0.1 0.1 0.1 0.1 0.2 0.3 1.6 1.6 2.6 2.7 3.5 2.2 4.4 7.6 5.2 3.8 4.1 6.5 7.0 6.2 5.4 8.3 nan nan 5.9 4.6 6.0 6.2 6.4 6.6 6.9 6.6 nan nan 5.3 6.4 8.3 10.9
0.2 2.0 0.4 0.1 0.1 0.1 0.1 0.3 0.8 1.4 2.5 2.2 2.1 1.4 2.6 4.0 7.0 4.0 4.3 6.2 4.2 5.5 4.5 5.3 6.1 nan 7.2 nan nan nan 9.3 9.7 10.3 6.6 5.8 nan 8.0 nan nan 6.1 7.8 11.6 17.7
0.1 0.0 0.4 1.9 0.4 0.1 0.1 0.3 1.5 2.2 3.2 2.1 2.4 2.2 0.8 1.7 2.4 2.6 3.4 4.2 5.1 4.7 6.4 6.1 7.0 6.6 6.3 8.0 nan nan 5.6 8.6 9.3 10.4 10.9 10.3 nan nan nan nan 7.9 15.3 13.4
0.0 0.0 0.0 0.1 0.6 0.2 0.2 0.7 0.5 1.6 0.7 1.5 1.7 2.0 2.7 1.5 1.1 1.6 2.7 4.2 5.2 6.4 8.0 7.5 7.7 7.6 7.5 nan nan nan nan nan 7.7 11.1 12.2 16.0 nan nan nan 7.4 nan nan 4.5
0.0 0.0 0.0 0.1 0.1 0.1 0.1 1.2 1.7 0.4 0.5 0.5 1.1 2.1 1.3 1.1 1.3 2.2 3.5 3.0 2.2 3.1 5.5 7.3 9.7 11.9 10.1 9.8 nan nan nan nan 11.4 13.2 16.8 nan nan nan 1.8 nan nan 4.0 11.4
0.0 0.0 0.0 0.1 0.1 0.1 0.2 0.2 0.3 0.3 0.8 0.8 0.9 0.9 1.0 1.6 1.6 2.1 2.6 3.0 3.6 4.1 4.0 4.8 5.5 5.9 5.2 5.6 4.8 5.2 5.1 2.6 6.3 2.7 7.1 4.0 6.3 3.5 4.7 4.6 5.7 5.9 7.2
0.0 0.0 0.0 0.0 0.0 0.0 0.1 0.1 0.2 0.2 0.5 0.5 0.7 1.0 1.2 1.2 1.7 2.3 2.3 2.0 2.8 2.9 4.0 5.7 5.3 9.0 10.5 10.1 6.4 6.4 6.2 5.8 4.9 4.6 6.2 5.9 5.1 5.1 4.3 4.0 4.1 3.4 3.0
0.0 0.0 0.0 0.0 0.0 0.0 0.1 0.1 0.0 0.0 0.2 0.4 0.9 1.1 1.1 1.4 1.4 1.5 3.1 nan nan nan nan nan 3.2 7.2 nan nan nan nan nan nan nan 3.3 4.8 8.4 7.6 4.5 2.6 3.0 2.7 2.2 1.8
Water_Equivalent
0.00 0.00 0.00 0.00 0.00 0.00 0.00 0.00 0.00 0.00 0.00 0.00 0.00 0.00 0.00 0.00 0.00 0.00 0.00 0.00 0.00 0.00 0.00 0.00 0.00 0.00 0.00 0.00 0.00 0.00 0.00 0.00 0.00 0.00 0.00 0.00 0.00 0.00 0.00 0.00 0.00 0.00 0.00
0.00 0.00 0.00 0.00 0.00 0.00 0.00 0.00 0.00 0.00 0.00 0.00 0.00 0.00 0.00 0.00 0.00 0.00 0.00 0.00 0.00 0.00 0.00 0.00 0.00 0.00 0.00 0.00 0.00 0.00 0.00 0.00 0.00 0.00 0.00 0.00 0.00 0.00 0.00 0.00 0.00 0.00 0.00
0.00 0.00 0.00 0.00 0.00 0.00 0.00 0.00 0.00 0.00 0.00 0.00 0.00 0.00 0.00 0.00 0.00 0.00 0.00 0.00 0.00 0.00 0.00 0.00 0.00 0.00 0.00 0.00 0.00 0.00 0.00 0.00 0.00 0.00 0.00 0.00 0.00 0.00 0.00 0.00 0.00 0.00 0.00
0.00 0.00 0.00 0.00 0.00 0.00 0.00 0.00 0.00 0.00 0.00 0.00 0.00 0.00 0.00 0.00 0.00 0.00 0.00 0.00 0.00 0.00 0.00 0.00 0.00 0.00 0.00 0.00 0.00 0.00 0.00 0.00 0.00 0.00 0.00 0.00 0.00 0.00 0.00 0.00 0.00 0.00 0.00
0.00 0.00 0.00 0.00 0.00 0.00 0.00 0.00 0.00 0.00 0.00 0.00 0.00 0.00 0.00 0.00 0.00 0.00 0.00 0.00 0.00 0.00 0.00 0.00 0.00 0.00 0.00 0.00 0.00 0.00 0.00 0.00 0.00 0.00 0.00 0.00 0.00 0.00 0.00 0.00 0.00 0.00 0.00
0.00 0.00 0.00 0.00 0.00 0.00 0.00 0.00 0.00 0.00 0.00 0.00 0.00 0.00 0.00 0.00 0.00 0.00 0.00 0.00 0.00 0.00 0.00 0.00 0.00 0.00 0.00 0.00 0.00 0.00 0.00 0.00 0.00 0.00 0.00 0.00 0.00 0.00 0.00 0.00 0.00 0.00 0.00
0.00 0.00 0.00 0.00 0.00 0.00 0.00 0.00 0.00 0.00 0.00 0.00 0.00 0.00 0.00 0.00 0.00 0.00 0.00 0.00 0.00 0.00 0.00 0.00 0.00 0.00 0.00 0.00 0.00 0.00 0.00 0.00 0.00 0.00 0.00 0.00 0.00 0.00 0.00 0.00 0.00 0.00 0.00
0.00 0.00 0.00 0.00 0.00 0.00 0.00 0.00 0.00 0.00 0.00 0.00 0.00 0.00 0.00 0.00 0.00 0.00 0.00 0.00 0.00 0.00 0.00 0.00 0.00 0.00 0.00 0.00 0.00 0.00 0.00 0.00 0.00 0.00 0.00 0.00 0.00 0.00 0.00 0.00 0.00 0.00 0.00
0.00 0.00 0.00 0.00 0.00 0.00 0.00 0.00 0.00 0.00 0.00 0.00 0.00 0.00 0.00 0.00 0.00 0.00 0.00 0.00 0.00 0.00 0.00 0.00 0.00 0.00 0.00 0.00 0.00 0.00 0.00 0.00 0.00 0.00 0.00 0.00 0.00 0.00 0.00 0.00 0.00 0.01 0.01
0.00 0.00 0.00 0.00 0.00 0.00 0.00 0.00 0.00 0.00 0.00 0.00 0.00 0.00 0.00 0.00 0.00 0.00 0.00 0.00 0.00 0.00 0.00 0.00 0.00 0.00 0.00 0.00 0.00 0.00 0.00 0.00 0.00 0.00 0.00 0.00 0.00 0.00 0.00 0.00 0.00 0.00 0.01
0.00 0.00 0.00 0.00 0.00 0.00 0.00 0.00 0.00 0.00 0.00 0.00 0.00 0.00 0.00 0.00 0.00 0.00 0.00 0.00 0.00 0.00 0.00 0.00 0.00 0.00 0.00 0.00 0.00 0.00 0.00 0.00 0.00 0.00 0.00 0.00 0.00 0.00 0.00 0.00 0.00 0.00 0.00
0.00 0.00 0.00 0.00 0.00 0.00 0.00 0.00 0.00 0.00 0.00 0.00 0.00 0.00 0.00 0.00 0.00 0.00 0.00 0.00 0.00 0.00 0.00 0.00 0.00 0.00 0.00 0.00 0.00 0.00 0.00 0.00 0.00 0.00 0.00 0.00 0.00 0.00 0.00 0.00 0.00 0.00 0.00
0.00 0.00 0.00 0.00 0.00 0.00 0.00 0.00 0.00 0.00 0.00 0.00 0.00 0.00 0.00 0.00 0.00 0.00 0.00 0.00 0.00 0.00 0.00 0.00 0.00 0.00 0.00 0.00 0.00 0.00 0.01 0.01 0.00 0.00 0.00 0.00 0.00 0.00 0.00 0.00 0.00 0.00 0.00
0.00 0.00 0.00 0.00 0.00 0.00 0.00 0.00 0.00 0.00 0.00 0.00 0.00 0.00 0.00 0.00 0.00 0.00 0.00 0.00 0.00 0.00 0.00 0.00 0.00 0.00 0.00 0.00 0.01 0.02 0.03 0.02 0.01 0.00 0.00 0.00 0.02 0.03 0.01 0.00 0.00 0.00 0.00
0.00 0.00 0.00 0.00 0.00 0.00 0.00 0.00 0.00 0.00 0.00 0.00 0.00 0.01 0.01 0.00 0.00 0.00 0.00 0.00 0.00 0.01 0.02 0.04 0.13 0.15 0.23 0.14 0.17 0.09 0.05 0.02 0.00 0.00 0.00 0.01 nan nan nan 0.07 0.03 0.01 0.01
0.00 0.00 0.00 0.00 0.00 0.00 0.00 0.00 0.00 0.00 0.00 0.00 0.05 0.12 0.03 0.03 0.05 0.04 0.03 0.02 0.08 0.15 0.16 0.22 0.26 0.33 0.19 nan nan 0.08 0.06 0.03 0.02 0.03 0.01 0.02 0.03 0.02 nan nan nan nan 0.20
0.00 0.00 0.00 0.00 0.00 0.00 0.00 0.00 0.00 0.00 0.02 0.03 0.05 0.11 0.17 0.14 0.35 0.11 0.12 0.21 0.19 0.15 0.23 0.56 0.28 0.47 0.31 nan nan nan 0.14 0.14 0.26 0.19 0.10 0.06 0.14 nan 0.06 nan nan nan nan
0.00 0.00 0.00 0.00 0.00 0.00 0.00 0.00 0.01 0.02 0.04 0.10 0.15 0.09 0.14 0.45 0.15 0.54 0.79 0.76 0.66 1.03 1.08 0.48 0.78 0.32 0.45 nan nan nan 0.69 0.88 0.83 0.97 0.90 0.64 0.48 0.56 0.36 0.36 0.51 0.73 0.68
0.13 0.02 0.02 0.02 0.02 0.02 0.02 0.03 0.04 0.05 0.07 0.40 0.43 0.72 0.66 0.73 0.52 0.88 1.71 1.18 0.75 0.77 1.15 1.40 1.03 0.97 1.65 nan nan 1.18 0.81 1.06 1.01 1.10 1.19 1.20 1.06 nan nan 0.82 1.00 1.32 1.79
0.07 0.69 0.13 0.03 0.03 0.04 0.02 0.09 0.22 0.43 0.71 0.64 0.58 0.37 0.75 1.03 1.78 1.08 0.98 1.64 0.98 1.15 0.91 0.93 1.14 nan 1.38 nan nan nan 2.06 1.75 1.87 1.22 1.17 nan 1.32 nan nan 0.96 1.27 1.88 2.79
0.04 0.01 0.14 0.68 0.12 0.02 0.02 0.08 0.48 0.57 0.97 0.64 0.82 0.68 0.21 0.46 0.70 0.82 1.15 1.13 1.32 1.20 1.34 1.26 1.34 1.30 1.32 1.67 nan nan 1.07 1.70 1.90 2.07 2.17 2.19 nan nan nan nan 1.44 2.50 2.43
0.01 0.00 0.01 0.04 0.22 0.09 0.07 0.20 0.13 0.43 0.20 0.45 0.48 0.53 0.72 0.41 0.28 0.41 0.61 1.02 1.26 1.47 1.67 1.48 1.56 1.55 1.56 nan nan nan nan nan 1.47 1.95 2.24 3.13 nan nan nan 1.61 nan nan 1.25
0.00 0.00 0.00 0.02 0.03 0.02 0.02 0.33 0.44 0.09 0.13 0.11 0.22 0.50 0.30 0.21 0.28 0.44 0.65 0.54 0.38 0.55 0.90 1.18 1.52 1.75 1.61 1.58 nan nan nan nan 1.94 2.35 3.08 nan nan nan 0.60 nan nan 1.31 1.99
0.01 0.00 0.01 0.02 0.02 0.01 0.04 0.05 0.06 0.08 0.16 0.15 0.15 0.14 0.16 0.25 0.26 0.37 0.48 0.54 0.65 0.70 0.66 0.75 0.83 0.88 0.84 0.97 0.93 0.99 0.96 0.75 1.17 0.75 1.36 1.31 1.31 1.17 1.25 1.01 0.97 1.01 1.17
0.00 0.00 0.00 0.00 0.00 0.01 0.02 0.03 0.04 0.05 0.08 0.08 0.10 0.14 0.20 0.19 0.26 0.38 0.39 0.37 0.47 0.53 0.71 1.00 0.98 1.58 1.87 1.88 1.39 1.32 1.24 1.17 1.06 1.18 1.33 1.15 0.99 0.90 0.73 0.68 0.69 0.57 0.53
0.00 0.00 0.00 0.00 0.00 0.00 0.02 0.02 0.00 0.01 0.04 0.07 0.18 0.24 0.23 0.29 0.27 0.31 0.54 nan nan nan nan nan 0.73 1.45 nan nan nan nan nan nan nan 0.70 0.88 1.37 1.34 0.80 0.45 0.51 0.46 0.38 0.37
SL_Ratio
nan nan nan nan nan nan nan nan nan nan nan nan nan nan nan nan nan nan nan nan nan nan nan nan nan nan nan nan nan nan nan nan nan nan nan nan nan nan nan nan nan nan nan
nan nan nan nan nan nan nan nan nan nan nan nan nan nan nan nan nan nan nan nan nan nan nan nan nan nan nan nan nan nan nan nan nan nan nan nan nan nan nan nan nan nan nan
nan nan nan nan nan nan nan nan nan nan nan nan nan nan nan nan nan nan nan nan nan nan nan nan nan nan nan nan nan nan nan nan nan nan nan nan nan nan nan nan nan nan nan
nan nan nan nan nan nan nan nan nan nan nan nan nan nan nan nan nan nan nan nan nan nan nan nan nan nan nan nan nan nan nan nan nan nan nan nan nan nan nan nan nan nan nan
nan nan nan nan nan nan nan nan nan nan nan nan nan nan nan nan nan nan nan nan nan nan nan nan nan nan nan nan nan nan nan nan nan nan nan nan nan nan nan nan nan nan nan
nan nan nan nan nan nan nan nan nan nan nan nan nan nan nan nan nan nan nan nan nan nan nan nan nan nan nan nan nan nan nan nan nan nan nan nan nan nan nan nan nan nan nan
nan nan nan nan nan nan nan nan nan nan nan nan nan nan nan nan nan nan nan nan nan nan nan nan nan nan nan nan nan nan nan nan nan nan nan nan nan nan nan nan nan nan nan
nan nan nan nan nan nan nan nan nan nan nan nan nan nan nan nan nan nan nan nan nan nan nan nan nan nan nan nan nan nan nan nan nan nan nan nan nan nan nan nan nan nan nan
nan nan nan nan nan nan nan nan nan nan nan nan nan nan nan nan nan nan nan nan nan nan nan nan nan nan nan nan nan nan nan nan nan nan nan nan nan nan nan nan nan 4.8 5.9
nan nan nan nan nan nan nan nan nan nan nan nan nan nan nan nan nan nan nan nan nan nan nan nan nan nan nan nan nan nan nan nan nan nan 0.0 nan nan nan nan nan nan nan 4.7
nan nan nan nan nan nan nan nan nan nan nan nan nan nan nan nan nan nan nan nan nan nan nan nan nan nan nan nan nan nan nan nan nan nan nan 10.0 nan nan nan nan nan nan nan
nan nan nan nan nan nan nan nan nan nan nan nan nan nan nan nan nan nan nan nan nan nan nan nan nan nan nan nan nan nan 5.0 6.4 nan nan nan nan nan nan nan nan nan nan nan
nan nan nan nan nan nan nan nan nan nan nan nan nan nan nan nan nan nan nan nan nan nan nan nan nan nan nan nan 0.0 0.0 3.3 5.5 7.5 10.0 nan nan nan 3.3 nan nan nan nan nan
nan nan nan nan nan nan nan nan nan nan nan nan nan nan nan nan nan nan nan nan nan nan 4.0 3.3 nan nan nan 4.5 4.8 5.7 6.4 7.1 6.9 0.0 nan 5.3 5.8 5.8 5.9 nan nan nan nan
nan nan nan nan nan nan nan nan nan nan nan nan nan 3.2 3.2 nan nan nan nan nan 3.3 4.0 4.3 4.9 5.5 5.7 6.1 5.9 6.6 6.8 7.3 7.5 7.3 nan nan 5.1 nan nan nan 6.0 6.3 5.9 5.7
nan nan nan nan nan nan nan nan nan nan nan nan 3.4 3.2 3.3 3.3 3.3 2.9 3.3 4.0 4.4 4.5 5.0 5.7 6.1 7.0 5.9 nan nan 7.0 7.2 6.8 6.1 5.9 4.9 4.7 5.1 5.0 nan nan nan nan 7.9
nan nan nan nan nan nan nan nan nan 0.0 3.5 3.7 3.7 3.7 3.5 3.7 3.7 3.6 4.2 4.4 4.7 5.0 6.5 5.9 6.6 5.7 5.5 nan nan nan 5.7 6.2 5.7 5.5 5.6 5.7 5.7 nan 5.9 nan nan nan nan
nan nan nan nan 2.5 nan nan 2.9 3.2 3.4 3.7 3.8 3.9 3.7 3.9 4.3 4.2 4.1 4.3 4.4 4.6 5.0 5.3 5.8 5.1 5.8 5.3 nan nan nan 5.6 5.8 5.8 5.4 5.8 5.7 6.3 6.4 6.6 6.5 6.2 6.1 5.8
2.7 3.4 3.2 3.3 3.2 3.1 3.1 3.4 3.5 3.8 4.2 4.1 3.8 3.6 4.1 4.7 4.2 5.0 4.5 4.4 5.0 5.4 5.6 5.0 6.0 5.5 5.1 nan nan 5.0 5.7 5.7 6.2 5.8 5.5 5.7 6.2 nan nan 6.4 6.5 6.3 6.1
3.3 3.0 3.2 3.0 3.0 3.0 3.2 2.9 3.4 3.2 3.5 3.5 3.7 3.7 3.5 3.9 3.9 3.7 4.4 3.8 4.3 4.8 4.9 5.8 5.4 nan 5.2 nan nan nan 4.5 5.5 5.5 5.4 4.9 nan 6.1 nan nan 6.4 6.2 6.2 6.4
3.3 3.3 2.6 2.8 3.2 2.7 2.9 3.3 3.1 3.9 3.3 3.2 2.9 3.2 3.6 3.7 3.5 3.1 3.0 3.8 3.9 3.9 4.7 4.8 5.2 5.1 4.8 4.8 nan nan 5.2 5.1 4.9 5.0 5.0 4.7 nan nan nan nan 5.5 6.1 5.5
3.3 nan 3.7 3.5 2.9 2.7 2.8 3.7 4.0 3.7 3.5 3.3 3.6 3.8 3.7 3.8 4.0 3.9 4.4 4.2 4.1 4.3 4.8 5.1 4.9 4.9 4.8 nan nan nan nan nan 5.3 5.7 5.4 5.1 nan nan nan 4.6 nan nan 3.6
2.5 nan 4.0 3.9 3.9 3.5 3.8 3.5 3.9 4.1 3.9 4.7 4.9 4.1 4.2 4.9 4.9 5.1 5.4 5.5 6.0 5.7 6.1 6.2 6.4 6.8 6.3 6.2 nan nan nan nan 5.9 5.6 5.5 nan nan nan 3.0 nan nan 3.0 5.7
3.3 nan 3.7 4.1 4.4 4.1 4.3 4.5 4.3 4.2 4.6 5.4 6.0 6.3 6.4 6.2 6.4 5.7 5.5 5.5 5.6 5.9 6.1 6.4 6.6 6.7 6.1 5.8 5.2 5.2 5.3 3.5 5.4 3.6 5.2 3.0 4.9 3.0 3.8 4.6 5.8 5.9 6.1
4.2 nan 5.0 4.0 4.7 4.3 4.6 4.3 4.4 4.4 5.5 5.9 6.4 6.9 6.2 6.5 6.6 6.1 5.8 5.4 6.1 5.4 5.6 5.7 5.4 5.7 5.6 5.4 4.6 4.9 5.0 5.0 4.6 3.9 4.7 5.1 5.2 5.7 5.8 5.9 6.0 5.9 5.7
nan nan nan nan 2.5 4.7 4.7 4.1 4.3 4.4 4.8 6.2 4.8 4.5 4.6 5.0 5.0 4.9 5.8 nan nan nan nan nan 4.3 4.9 nan nan nan nan nan nan nan 4.7 5.4 6.1 5.7 5.7 5.7 5.9 5.9 5.8 4.8